Orbital Elements at Epoch 2459200.5 (2020-Dec-17.0) TDB
Reference: JPL 19 (heliocentric ecliptic J2000)
Element | Value | Uncertainty (1-sigma) | Units |
e | .5270388768512498 | 0.00053899 | |
a | 2.075406346526722 | 0.0023411 | au |
q | .9815865166433225 | 1.1371e-05 | au |
i | 6.948622298993042 | 0.0051046 | deg |
node | 168.6269175603187 | 0.00043815 | deg |
peri | 6.80044094919921 | 0.0024207 | deg |
M | 330.9476470851002 | 0.048885 | deg |
tp | 2459288.631659511387 (2021-Mar-15.13165951) | 0.00083023 | TDB |
period | 1092.076690553617 2.99 | 1.8478 0.005059 | d yr |
n | .329647178732019 | 0.00055777 | deg/d |
Q | 3.169226176410121 | 0.0035749 | au |
|
| | Orbit Determination Parameters
Additional Information
|